Data supplied by UK-AIR on 21/3/2017
All Data GMT hour ending 
Status: R =Ratified P=Provisional,P*=As supplied
,,Oxford Centre Roadside,,,,,,,,,,,,,,,,,,,,,,,
Date,time,"Nitric oxide",status,unit,"Nitrogen dioxide",status,unit,"Nitrogen oxides as nitrogen dioxide",status,unit
 
01-01-2016,01:00,43.15325,R,ugm-3,42.47854,R,ugm-3,108.64594,R,ugm-3
01-01-2016,02:00,,,,,,,,,
01-01-2016,03:00,87.77001,R,ugm-3,71.91526,R,ugm-3,206.49406,R,ugm-3
01-01-2016,04:00,89.09557,R,ugm-3,70.23513,R,ugm-3,206.84644,R,ugm-3
01-01-2016,05:00,88.50124,R,ugm-3,55.51175,R,ugm-3,191.21175,R,ugm-3
01-01-2016,06:00,33.00481,R,ugm-3,36.08983,R,ugm-3,86.69649,R,ugm-3
01-01-2016,07:00,29.80548,R,ugm-3,47.05228,R,ugm-3,92.75338,R,ugm-3
01-01-2016,08:00,15.49708,R,ugm-3,28.14387,R,ugm-3,51.90573,R,ugm-3
01-01-2016,09:00,19.56546,R,ugm-3,27.75085,R,ugm-3,57.75081,R,ugm-3
01-01-2016,10:00,41.32523,R,ugm-3,35.51608,R,ugm-3,98.88055,R,ugm-3
01-01-2016,11:00,43.83917,R,ugm-3,37.36690,R,ugm-3,104.58602,R,ugm-3
01-01-2016,12:00,36.29674,R,ugm-3,35.69012,R,ugm-3,91.34435,R,ugm-3
01-01-2016,13:00,44.52487,R,ugm-3,37.44197,R,ugm-3,105.71248,R,ugm-3
01-01-2016,14:00,30.35398,R,ugm-3,37.12641,R,ugm-3,83.66853,R,ugm-3
01-01-2016,15:00,36.11370,R,ugm-3,31.67483,R,ugm-3,87.04839,R,ugm-3
01-01-2016,16:00,30.58224,R,ugm-3,30.01525,R,ugm-3,76.90736,R,ugm-3
01-01-2016,17:00,38.12528,R,ugm-3,37.18283,R,ugm-3,95.64078,R,ugm-3
01-01-2016,18:00,37.75951,R,ugm-3,31.82783,R,ugm-3,89.72494,R,ugm-3
01-01-2016,19:00,13.66823,R,ugm-3,19.04515,R,ugm-3,40.00281,R,ugm-3
01-01-2016,20:00,13.02836,R,ugm-3,17.42096,R,ugm-3,37.39750,R,ugm-3
01-01-2016,21:00,9.96530,R,ugm-3,14.72195,R,ugm-3,30.00187,R,ugm-3
01-01-2016,22:00,28.34240,R,ugm-3,21.05423,R,ugm-3,64.51197,R,ugm-3
01-01-2016,23:00,26.92547,R,ugm-3,21.60695,R,ugm-3,62.89208,R,ugm-3
01-01-2016,24:00,33.69082,R,ugm-3,21.09344,R,ugm-3,72.75198,R,ugm-3
02-01-2016,01:00,14.85160,R,ugm-3,15.01121,R,ugm-3,37.78335,R,ugm-3
02-01-2016,02:00,3.05589,R,ugm-3,14.72434,R,ugm-3,19.40996,R,ugm-3
02-01-2016,03:00,4.30880,R,ugm-3,10.63589,R,ugm-3,17.24262,R,ugm-3
02-01-2016,04:00,2.56694,R,ugm-3,7.30001,R,ugm-3,11.23594,R,ugm-3
02-01-2016,05:00,2.56694,R,ugm-3,7.30001,R,ugm-3,11.23594,R,ugm-3
02-01-2016,06:00,5.40892,R,ugm-3,9.37316,R,ugm-3,17.66672,R,ugm-3
02-01-2016,07:00,19.25208,R,ugm-3,16.97965,R,ugm-3,46.49909,R,ugm-3
02-01-2016,08:00,30.52829,R,ugm-3,27.03749,R,ugm-3,73.84688,R,ugm-3
02-01-2016,09:00,54.54755,R,ugm-3,31.69013,R,ugm-3,115.32853,R,ugm-3
02-01-2016,10:00,73.89130,R,ugm-3,39.48308,R,ugm-3,152.78150,R,ugm-3
02-01-2016,11:00,68.43655,R,ugm-3,41.13405,R,ugm-3,146.06862,R,ugm-3
02-01-2016,12:00,76.09154,R,ugm-3,40.98583,R,ugm-3,157.65789,R,ugm-3
02-01-2016,13:00,63.99023,R,ugm-3,41.52085,R,ugm-3,139.63784,R,ugm-3
02-01-2016,14:00,96.62708,R,ugm-3,52.11037,R,ugm-3,200.26983,R,ugm-3
02-01-2016,15:00,116.88760,R,ugm-3,63.16223,R,ugm-3,242.38738,R,ugm-3
02-01-2016,16:00,228.77883,R,ugm-3,105.36536,R,ugm-3,456.15468,R,ugm-3
02-01-2016,17:00,63.99023,R,ugm-3,68.65636,R,ugm-3,166.77335,R,ugm-3
02-01-2016,18:00,29.93239,R,ugm-3,39.68198,R,ugm-3,85.57768,R,ugm-3
02-01-2016,19:00,27.91551,R,ugm-3,41.78478,R,ugm-3,84.58796,R,ugm-3
02-01-2016,20:00,13.93484,R,ugm-3,38.48858,R,ugm-3,59.85503,R,ugm-3
02-01-2016,21:00,13.10975,R,ugm-3,33.46397,R,ugm-3,53.56530,R,ugm-3
02-01-2016,22:00,17.83109,R,ugm-3,33.92775,R,ugm-3,61.26837,R,ugm-3
02-01-2016,23:00,22.46076,R,ugm-3,32.34085,R,ugm-3,66.78020,R,ugm-3
02-01-2016,24:00,14.43906,R,ugm-3,26.26723,R,ugm-3,48.40681,R,ugm-3
03-01-2016,01:00,8.03344,R,ugm-3,17.46304,R,ugm-3,29.78081,R,ugm-3
03-01-2016,02:00,2.75944,R,ugm-3,17.04038,R,ugm-3,21.27146,R,ugm-3
03-01-2016,03:00,3.95550,R,ugm-3,11.87376,R,ugm-3,17.93877,R,ugm-3
03-01-2016,04:00,4.41575,R,ugm-3,15.70593,R,ugm-3,22.47666,R,ugm-3
03-01-2016,05:00,4.32345,R,ugm-3,16.48575,R,ugm-3,23.11495,R,ugm-3
03-01-2016,06:00,4.41513,R,ugm-3,14.92754,R,ugm-3,21.69731,R,ugm-3
03-01-2016,07:00,10.16487,R,ugm-3,17.31434,R,ugm-3,32.90026,R,ugm-3
03-01-2016,08:00,18.39768,R,ugm-3,24.26102,R,ugm-3,52.47039,R,ugm-3
03-01-2016,09:00,29.80423,R,ugm-3,30.17017,R,ugm-3,75.86935,R,ugm-3
03-01-2016,10:00,30.54045,R,ugm-3,26.41832,R,ugm-3,73.24636,R,ugm-3
03-01-2016,11:00,31.41419,R,ugm-3,28.12762,R,ugm-3,76.29536,R,ugm-3
03-01-2016,12:00,34.21968,R,ugm-3,27.79580,R,ugm-3,80.26523,R,ugm-3
03-01-2016,13:00,43.09609,R,ugm-3,34.81945,R,ugm-3,100.89920,R,ugm-3
03-01-2016,14:00,52.89332,R,ugm-3,57.87368,R,ugm-3,138.97564,R,ugm-3
03-01-2016,15:00,68.07171,R,ugm-3,71.40032,R,ugm-3,175.77548,R,ugm-3
03-01-2016,16:00,65.63417,R,ugm-3,62.44599,R,ugm-3,163.08366,R,ugm-3
03-01-2016,17:00,58.96486,R,ugm-3,59.76706,R,ugm-3,150.17858,R,ugm-3
03-01-2016,18:00,118.57270,R,ugm-3,84.15956,R,ugm-3,265.96851,R,ugm-3
03-01-2016,19:00,74.69425,R,ugm-3,66.35180,R,ugm-3,180.88138,R,ugm-3
03-01-2016,20:00,111.58190,R,ugm-3,75.45004,R,ugm-3,246.53990,R,ugm-3
03-01-2016,21:00,99.16347,R,ugm-3,69.81629,R,ugm-3,221.86482,R,ugm-3
03-01-2016,22:00,67.88711,R,ugm-3,61.11824,R,ugm-3,165.21036,R,ugm-3
03-01-2016,23:00,70.32527,R,ugm-3,59.43620,R,ugm-3,167.26677,R,ugm-3
03-01-2016,24:00,,,,,,,,,
04-01-2016,01:00,,,,,,,,,
04-01-2016,02:00,,,,,,,,,
04-01-2016,03:00,3.87380,R,ugm-3,18.53404,R,ugm-3,24.47378,R,ugm-3
04-01-2016,04:00,1.47587,R,ugm-3,16.94618,R,ugm-3,19.20915,R,ugm-3
04-01-2016,05:00,10.56089,R,ugm-3,19.59261,R,ugm-3,35.78574,R,ugm-3
04-01-2016,06:00,15.77242,R,ugm-3,30.31265,R,ugm-3,54.49669,R,ugm-3
04-01-2016,07:00,80.10878,R,ugm-3,64.91981,R,ugm-3,187.75156,R,ugm-3
04-01-2016,08:00,146.42772,R,ugm-3,92.28912,R,ugm-3,316.80849,R,ugm-3
04-01-2016,09:00,242.35507,R,ugm-3,105.06558,R,ugm-3,476.67150,R,ugm-3
04-01-2016,10:00,211.08588,R,ugm-3,98.08734,R,ugm-3,421.74785,R,ugm-3
04-01-2016,11:00,121.24660,R,ugm-3,82.30826,R,ugm-3,268.21713,R,ugm-3
04-01-2016,12:00,57.55604,R,ugm-3,62.36280,R,ugm-3,150.61416,R,ugm-3
04-01-2016,13:00,56.63428,R,ugm-3,55.66523,R,ugm-3,142.50324,R,ugm-3
04-01-2016,14:00,41.18398,R,ugm-3,45.56149,R,ugm-3,108.70937,R,ugm-3
04-01-2016,15:00,87.44134,R,ugm-3,71.60543,R,ugm-3,205.68029,R,ugm-3
04-01-2016,16:00,160.17109,R,ugm-3,87.08186,R,ugm-3,332.67412,R,ugm-3
04-01-2016,17:00,216.25157,R,ugm-3,105.67614,R,ugm-3,437.25727,R,ugm-3
04-01-2016,18:00,156.75817,R,ugm-3,99.85641,R,ugm-3,340.21558,R,ugm-3
04-01-2016,19:00,153.43786,R,ugm-3,87.80096,R,ugm-3,323.06906,R,ugm-3
04-01-2016,20:00,75.08185,R,ugm-3,70.20883,R,ugm-3,185.33273,R,ugm-3
04-01-2016,21:00,70.83884,R,ugm-3,57.29181,R,ugm-3,165.90985,R,ugm-3
04-01-2016,22:00,34.77379,R,ugm-3,45.50124,R,ugm-3,98.82031,R,ugm-3
04-01-2016,23:00,31.49931,R,ugm-3,40.84622,R,ugm-3,89.14449,R,ugm-3
04-01-2016,24:00,25.36572,R,ugm-3,36.37766,R,ugm-3,75.27122,R,ugm-3
05-01-2016,01:00,9.68695,R,ugm-3,22.45721,R,ugm-3,37.31033,R,ugm-3
05-01-2016,02:00,12.33996,R,ugm-3,24.86123,R,ugm-3,43.78223,R,ugm-3
05-01-2016,03:00,5.64528,R,ugm-3,18.25577,R,ugm-3,26.91174,R,ugm-3
05-01-2016,04:00,4.39611,R,ugm-3,13.24693,R,ugm-3,19.98754,R,ugm-3
05-01-2016,05:00,8.51438,R,ugm-3,19.35307,R,ugm-3,32.40827,R,ugm-3
05-01-2016,06:00,61.59167,R,ugm-3,49.18568,R,ugm-3,143.62493,R,ugm-3
05-01-2016,07:00,147.29303,R,ugm-3,72.39673,R,ugm-3,298.24290,R,ugm-3
05-01-2016,08:00,202.82252,R,ugm-3,88.76056,R,ugm-3,399.75075,R,ugm-3
05-01-2016,09:00,200.55524,R,ugm-3,82.10028,R,ugm-3,389.61402,R,ugm-3
05-01-2016,10:00,205.55286,R,ugm-3,86.57314,R,ugm-3,401.74979,R,ugm-3
05-01-2016,11:00,169.50464,R,ugm-3,84.52437,R,ugm-3,344.42786,R,ugm-3
05-01-2016,12:00,239.21052,R,ugm-3,87.31391,R,ugm-3,454.09826,R,ugm-3
05-01-2016,13:00,182.56980,R,ugm-3,87.92910,R,ugm-3,367.86555,R,ugm-3
05-01-2016,14:00,215.22411,R,ugm-3,92.30203,R,ugm-3,422.30773,R,ugm-3
05-01-2016,15:00,194.40075,R,ugm-3,96.81983,R,ugm-3,394.89683,R,ugm-3
05-01-2016,16:00,208.74595,R,ugm-3,94.95467,R,ugm-3,415.02732,R,ugm-3
05-01-2016,17:00,286.48735,R,ugm-3,127.22954,R,ugm-3,566.50402,R,ugm-3
05-01-2016,18:00,317.58410,R,ugm-3,109.88699,R,ugm-3,596.84248,R,ugm-3
05-01-2016,19:00,267.83865,R,ugm-3,102.99960,R,ugm-3,513.67981,R,ugm-3
05-01-2016,20:00,220.54572,R,ugm-3,93.49400,R,ugm-3,431.65938,R,ugm-3
05-01-2016,21:00,143.82242,R,ugm-3,80.64439,R,ugm-3,301.16903,R,ugm-3
05-01-2016,22:00,119.15769,R,ugm-3,75.63268,R,ugm-3,258.33859,R,ugm-3
05-01-2016,23:00,148.68097,R,ugm-3,77.62073,R,ugm-3,305.59503,R,ugm-3
05-01-2016,24:00,114.06746,R,ugm-3,65.80578,R,ugm-3,240.70677,R,ugm-3
06-01-2016,01:00,70.75018,R,ugm-3,64.79614,R,ugm-3,173.27824,R,ugm-3
06-01-2016,02:00,72.84315,R,ugm-3,61.11203,R,ugm-3,172.80330,R,ugm-3
06-01-2016,03:00,45.81177,R,ugm-3,55.72260,R,ugm-3,125.96633,R,ugm-3
06-01-2016,04:00,66.54720,R,ugm-3,49.37884,R,ugm-3,151.41645,R,ugm-3
06-01-2016,05:00,51.86180,R,ugm-3,44.23613,R,ugm-3,123.75644,R,ugm-3
06-01-2016,06:00,54.44776,R,ugm-3,49.03937,R,ugm-3,132.52478,R,ugm-3
06-01-2016,07:00,72.87381,R,ugm-3,58.99776,R,ugm-3,170.73605,R,ugm-3
06-01-2016,08:00,90.14611,R,ugm-3,68.72856,R,ugm-3,206.95067,R,ugm-3
06-01-2016,09:00,105.66253,R,ugm-3,60.47803,R,ugm-3,222.49164,R,ugm-3
06-01-2016,10:00,132.54028,R,ugm-3,61.89615,R,ugm-3,265.12175,R,ugm-3
06-01-2016,11:00,82.20268,R,ugm-3,52.89114,R,ugm-3,178.93350,R,ugm-3
06-01-2016,12:00,100.58290,R,ugm-3,57.71495,R,ugm-3,211.93990,R,ugm-3
06-01-2016,13:00,210.72510,R,ugm-3,89.79522,R,ugm-3,412.90253,R,ugm-3
06-01-2016,14:00,164.68258,R,ugm-3,84.25758,R,ugm-3,336.76734,R,ugm-3
06-01-2016,15:00,158.12490,R,ugm-3,82.40676,R,ugm-3,324.86155,R,ugm-3
06-01-2016,16:00,114.85294,R,ugm-3,68.98388,R,ugm-3,245.08927,R,ugm-3
06-01-2016,17:00,258.98438,R,ugm-3,92.86192,R,ugm-3,489.96577,R,ugm-3
06-01-2016,18:00,254.27395,R,ugm-3,92.17103,R,ugm-3,482.05232,R,ugm-3
06-01-2016,19:00,202.68968,R,ugm-3,83.58103,R,ugm-3,394.36754,R,ugm-3
06-01-2016,20:00,154.38393,R,ugm-3,68.89494,R,ugm-3,305.61368,R,ugm-3
06-01-2016,21:00,119.79443,R,ugm-3,65.47061,R,ugm-3,249.15285,R,ugm-3
06-01-2016,22:00,77.90761,R,ugm-3,55.98413,R,ugm-3,175.44080,R,ugm-3
06-01-2016,23:00,74.21342,R,ugm-3,51.31190,R,ugm-3,165.10421,R,ugm-3
06-01-2016,24:00,36.66844,R,ugm-3,32.45847,R,ugm-3,88.68263,R,ugm-3
07-01-2016,01:00,13.27335,R,ugm-3,25.87613,R,ugm-3,46.22831,R,ugm-3
07-01-2016,02:00,13.51865,R,ugm-3,26.92290,R,ugm-3,47.65121,R,ugm-3
07-01-2016,03:00,5.62283,R,ugm-3,13.16326,R,ugm-3,21.78481,R,ugm-3
07-01-2016,04:00,3.31844,R,ugm-3,9.36360,R,ugm-3,14.45181,R,ugm-3
07-01-2016,05:00,5.16164,R,ugm-3,10.66697,R,ugm-3,18.58137,R,ugm-3
07-01-2016,06:00,13.08885,R,ugm-3,15.66911,R,ugm-3,35.73841,R,ugm-3
07-01-2016,07:00,34.01262,R,ugm-3,38.33415,R,ugm-3,90.48611,R,ugm-3
07-01-2016,08:00,84.66298,R,ugm-3,66.60616,R,ugm-3,196.42092,R,ugm-3
07-01-2016,09:00,83.74154,R,ugm-3,65.74075,R,ugm-3,194.14266,R,ugm-3
07-01-2016,10:00,62.95560,R,ugm-3,62.01568,R,ugm-3,158.54625,R,ugm-3
07-01-2016,11:00,22.21441,R,ugm-3,37.55863,R,ugm-3,71.62026,R,ugm-3
07-01-2016,12:00,16.54544,R,ugm-3,25.31959,R,ugm-3,50.68890,R,ugm-3
07-01-2016,13:00,13.59588,R,ugm-3,24.14723,R,ugm-3,44.99395,R,ugm-3
07-01-2016,14:00,12.99687,R,ugm-3,24.85198,R,ugm-3,44.78023,R,ugm-3
07-01-2016,15:00,15.57784,R,ugm-3,33.21056,R,ugm-3,57.09625,R,ugm-3
07-01-2016,16:00,17.37489,R,ugm-3,37.36164,R,ugm-3,64.00277,R,ugm-3
07-01-2016,17:00,21.15390,R,ugm-3,43.31382,R,ugm-3,75.74934,R,ugm-3
07-01-2016,18:00,34.93469,R,ugm-3,47.81250,R,ugm-3,101.37828,R,ugm-3
07-01-2016,19:00,39.26688,R,ugm-3,44.16010,R,ugm-3,104.36847,R,ugm-3
07-01-2016,20:00,32.03098,R,ugm-3,42.29781,R,ugm-3,91.41128,R,ugm-3
07-01-2016,21:00,34.42735,R,ugm-3,44.31884,R,ugm-3,97.10671,R,ugm-3
07-01-2016,22:00,24.10376,R,ugm-3,35.37360,R,ugm-3,72.33218,R,ugm-3
07-01-2016,23:00,61.75757,R,ugm-3,57.94397,R,ugm-3,152.63758,R,ugm-3
07-01-2016,24:00,47.05564,R,ugm-3,47.02598,R,ugm-3,119.17696,R,ugm-3
08-01-2016,01:00,26.43112,R,ugm-3,42.93180,R,ugm-3,83.45895,R,ugm-3
08-01-2016,02:00,6.07144,R,ugm-3,22.71030,R,ugm-3,32.01971,R,ugm-3
08-01-2016,03:00,16.74188,R,ugm-3,34.22419,R,ugm-3,59.89472,R,ugm-3
08-01-2016,04:00,11.13059,R,ugm-3,21.44247,R,ugm-3,38.50914,R,ugm-3
08-01-2016,05:00,13.79826,R,ugm-3,30.70853,R,ugm-3,51.86557,R,ugm-3
08-01-2016,06:00,33.80588,R,ugm-3,44.36570,R,ugm-3,96.20066,R,ugm-3
08-01-2016,07:00,188.02424,R,ugm-3,80.65921,R,ugm-3,368.95902,R,ugm-3
08-01-2016,08:00,139.68450,R,ugm-3,90.12417,R,ugm-3,304.30409,R,ugm-3
08-01-2016,09:00,145.06567,R,ugm-3,95.37303,R,ugm-3,317.80395,R,ugm-3
08-01-2016,10:00,163.37135,R,ugm-3,88.19255,R,ugm-3,338.69180,R,ugm-3
08-01-2016,11:00,80.62766,R,ugm-3,73.53419,R,ugm-3,197.16154,R,ugm-3
08-01-2016,12:00,103.02698,R,ugm-3,70.30876,R,ugm-3,228.28126,R,ugm-3
08-01-2016,13:00,49.35161,R,ugm-3,54.56219,R,ugm-3,130.23360,R,ugm-3
08-01-2016,14:00,49.30577,R,ugm-3,56.47947,R,ugm-3,132.08060,R,ugm-3
08-01-2016,15:00,96.95575,R,ugm-3,77.84210,R,ugm-3,226.50550,R,ugm-3
08-01-2016,16:00,86.19342,R,ugm-3,76.22603,R,ugm-3,208.38743,R,ugm-3
08-01-2016,17:00,151.50517,R,ugm-3,95.23294,R,ugm-3,327.53762,R,ugm-3
08-01-2016,18:00,257.70559,R,ugm-3,119.53890,R,ugm-3,514.68196,R,ugm-3
08-01-2016,19:00,263.82266,R,ugm-3,117.33474,R,ugm-3,521.85718,R,ugm-3
08-01-2016,20:00,197.86700,R,ugm-3,99.88462,R,ugm-3,403.27644,R,ugm-3
08-01-2016,21:00,144.55958,R,ugm-3,89.75410,R,ugm-3,311.40903,R,ugm-3
08-01-2016,22:00,128.87540,R,ugm-3,78.91788,R,ugm-3,276.52407,R,ugm-3
08-01-2016,23:00,110.93798,R,ugm-3,79.70726,R,ugm-3,249.80979,R,ugm-3
08-01-2016,24:00,75.43047,R,ugm-3,62.39149,R,ugm-3,178.04993,R,ugm-3
09-01-2016,01:00,22.64432,R,ugm-3,48.90964,R,ugm-3,83.63044,R,ugm-3
09-01-2016,02:00,44.30950,R,ugm-3,62.70960,R,ugm-3,130.64989,R,ugm-3
09-01-2016,03:00,24.41902,R,ugm-3,40.74916,R,ugm-3,78.19113,R,ugm-3
09-01-2016,04:00,12.30118,R,ugm-3,32.57992,R,ugm-3,51.44147,R,ugm-3
09-01-2016,05:00,8.44578,R,ugm-3,32.53163,R,ugm-3,45.48164,R,ugm-3
09-01-2016,06:00,10.74050,R,ugm-3,33.48309,R,ugm-3,49.95163,R,ugm-3
09-01-2016,07:00,55.53977,R,ugm-3,56.10940,R,ugm-3,141.26920,R,ugm-3
09-01-2016,08:00,36.44517,R,ugm-3,46.93036,R,ugm-3,102.81218,R,ugm-3
09-01-2016,09:00,102.90911,R,ugm-3,73.44622,R,ugm-3,231.23798,R,ugm-3
09-01-2016,10:00,110.29905,R,ugm-3,70.20405,R,ugm-3,239.32690,R,ugm-3
09-01-2016,11:00,104.83712,R,ugm-3,75.31521,R,ugm-3,236.06322,R,ugm-3
09-01-2016,12:00,60.22183,R,ugm-3,60.06971,R,ugm-3,152.40856,R,ugm-3
09-01-2016,13:00,62.60822,R,ugm-3,65.98938,R,ugm-3,161.98732,R,ugm-3
09-01-2016,14:00,78.26059,R,ugm-3,65.40463,R,ugm-3,185.40253,R,ugm-3
09-01-2016,15:00,44.52362,R,ugm-3,51.71400,R,ugm-3,119.98260,R,ugm-3
09-01-2016,16:00,81.01463,R,ugm-3,60.82658,R,ugm-3,185.04728,R,ugm-3
09-01-2016,17:00,69.58531,R,ugm-3,50.60858,R,ugm-3,157.30456,R,ugm-3
09-01-2016,18:00,70.22798,R,ugm-3,52.81608,R,ugm-3,160.49748,R,ugm-3
09-01-2016,19:00,54.62145,R,ugm-3,43.25501,R,ugm-3,127.00673,R,ugm-3
09-01-2016,20:00,13.95355,R,ugm-3,25.71834,R,ugm-3,47.11348,R,ugm-3
09-01-2016,21:00,22.49131,R,ugm-3,32.91986,R,ugm-3,67.40606,R,ugm-3
09-01-2016,22:00,23.73082,R,ugm-3,33.92871,R,ugm-3,70.31545,R,ugm-3
09-01-2016,23:00,27.95355,R,ugm-3,39.51560,R,ugm-3,82.37711,R,ugm-3
09-01-2016,24:00,17.07491,R,ugm-3,28.52398,R,ugm-3,54.70515,R,ugm-3
10-01-2016,01:00,9.28365,R,ugm-3,20.13161,R,ugm-3,34.36635,R,ugm-3
10-01-2016,02:00,5.86356,R,ugm-3,16.68975,R,ugm-3,25.68041,R,ugm-3
10-01-2016,03:00,5.77126,R,ugm-3,13.45635,R,ugm-3,22.30549,R,ugm-3
10-01-2016,04:00,4.26015,R,ugm-3,11.31196,R,ugm-3,17.84410,R,ugm-3
10-01-2016,05:00,2.19837,R,ugm-3,7.74658,R,ugm-3,11.11736,R,ugm-3
10-01-2016,06:00,1.96980,R,ugm-3,6.18550,R,ugm-3,9.20582,R,ugm-3
10-01-2016,07:00,3.43538,R,ugm-3,8.68227,R,ugm-3,13.94978,R,ugm-3
10-01-2016,08:00,6.73386,R,ugm-3,13.39658,R,ugm-3,23.72169,R,ugm-3
10-01-2016,09:00,17.81893,R,ugm-3,25.14794,R,ugm-3,52.46992,R,ugm-3
10-01-2016,10:00,23.45298,R,ugm-3,31.59211,R,ugm-3,67.55285,R,ugm-3
10-01-2016,11:00,27.48426,R,ugm-3,30.72192,R,ugm-3,72.86386,R,ugm-3
10-01-2016,12:00,16.49055,R,ugm-3,23.64472,R,ugm-3,48.92988,R,ugm-3
10-01-2016,13:00,31.14882,R,ugm-3,32.89165,R,ugm-3,80.65252,R,ugm-3
10-01-2016,14:00,17.95644,R,ugm-3,28.76113,R,ugm-3,56.29396,R,ugm-3
10-01-2016,15:00,42.50923,R,ugm-3,40.75203,R,ugm-3,105.93194,R,ugm-3
10-01-2016,16:00,27.30121,R,ugm-3,44.66931,R,ugm-3,86.53058,R,ugm-3
10-01-2016,17:00,100.63840,R,ugm-3,78.65587,R,ugm-3,232.96593,R,ugm-3
10-01-2016,18:00,67.06140,R,ugm-3,69.59731,R,ugm-3,172.42335,R,ugm-3
10-01-2016,19:00,41.50110,R,ugm-3,58.01712,R,ugm-3,121.65126,R,ugm-3
10-01-2016,20:00,40.90583,R,ugm-3,49.15842,R,ugm-3,111.87982,R,ugm-3
10-01-2016,21:00,74.48252,R,ugm-3,61.12159,R,ugm-3,175.32653,R,ugm-3
10-01-2016,22:00,61.74790,R,ugm-3,54.73097,R,ugm-3,149.40976,R,ugm-3
10-01-2016,23:00,36.87455,R,ugm-3,42.66501,R,ugm-3,99.20520,R,ugm-3
10-01-2016,24:00,37.28710,R,ugm-3,46.49335,R,ugm-3,103.66611,R,ugm-3
11-01-2016,01:00,12.80852,R,ugm-3,21.18668,R,ugm-3,40.82614,R,ugm-3
11-01-2016,02:00,9.27118,R,ugm-3,21.70751,R,ugm-3,35.92313,R,ugm-3
11-01-2016,03:00,7.13612,R,ugm-3,16.28350,R,ugm-3,27.22539,R,ugm-3
11-01-2016,04:00,4.48311,R,ugm-3,14.41069,R,ugm-3,21.28469,R,ugm-3
11-01-2016,05:00,8.37125,R,ugm-3,19.26844,R,ugm-3,32.10418,R,ugm-3
11-01-2016,06:00,26.62362,R,ugm-3,42.90407,R,ugm-3,83.72638,R,ugm-3
11-01-2016,07:00,234.35021,R,ugm-3,128.67013,R,ugm-3,488.00211,R,ugm-3
11-01-2016,08:00,234.76182,R,ugm-3,112.83511,R,ugm-3,472.79821,R,ugm-3
11-01-2016,09:00,247.25010,R,ugm-3,109.24391,R,ugm-3,488.35544,R,ugm-3
11-01-2016,10:00,77.58331,R,ugm-3,80.31448,R,ugm-3,199.27389,R,ugm-3
11-01-2016,11:00,33.48470,R,ugm-3,50.84047,R,ugm-3,102.18296,R,ugm-3
11-01-2016,12:00,57.36364,R,ugm-3,62.17155,R,ugm-3,150.12790,R,ugm-3
11-01-2016,13:00,75.70737,R,ugm-3,68.27003,R,ugm-3,184.35305,R,ugm-3
11-01-2016,14:00,112.66923,R,ugm-3,71.49116,R,ugm-3,244.24824,R,ugm-3
11-01-2016,15:00,50.86801,R,ugm-3,56.99776,R,ugm-3,134.99429,R,ugm-3
11-01-2016,16:00,48.35252,R,ugm-3,61.06708,R,ugm-3,135.20658,R,ugm-3
11-01-2016,17:00,92.35882,R,ugm-3,68.90259,R,ugm-3,210.51748,R,ugm-3
11-01-2016,18:00,112.48619,R,ugm-3,80.04530,R,ugm-3,252.52172,R,ugm-3
11-01-2016,19:00,150.54568,R,ugm-3,87.24156,R,ugm-3,318.07505,R,ugm-3
11-01-2016,20:00,69.53167,R,ugm-3,56.52489,R,ugm-3,163.13864,R,ugm-3
11-01-2016,21:00,45.97330,R,ugm-3,50.57176,R,ugm-3,121.06316,R,ugm-3
11-01-2016,22:00,28.31589,R,ugm-3,46.24903,R,ugm-3,89.66613,R,ugm-3
11-01-2016,23:00,16.10202,R,ugm-3,38.38770,R,ugm-3,63.07712,R,ugm-3
11-01-2016,24:00,17.65740,R,ugm-3,33.81061,R,ugm-3,60.88492,R,ugm-3
12-01-2016,01:00,9.61710,R,ugm-3,28.09654,R,ugm-3,42.84255,R,ugm-3
12-01-2016,02:00,4.74764,R,ugm-3,21.34478,R,ugm-3,28.62439,R,ugm-3
12-01-2016,03:00,5.06747,R,ugm-3,17.58209,R,ugm-3,25.35210,R,ugm-3
12-01-2016,04:00,2.78491,R,ugm-3,12.81949,R,ugm-3,17.08962,R,ugm-3
12-01-2016,05:00,2.46529,R,ugm-3,12.81566,R,ugm-3,16.59572,R,ugm-3
12-01-2016,06:00,5.88913,R,ugm-3,15.05090,R,ugm-3,24.08077,R,ugm-3
12-01-2016,07:00,28.85161,R,ugm-3,34.50150,R,ugm-3,78.74002,R,ugm-3
12-01-2016,08:00,50.94659,R,ugm-3,46.31358,R,ugm-3,124.43060,R,ugm-3
12-01-2016,09:00,43.59688,R,ugm-3,47.34346,R,ugm-3,114.19107,R,ugm-3
12-01-2016,10:00,41.99909,R,ugm-3,44.42642,R,ugm-3,108.82412,R,ugm-3
12-01-2016,11:00,26.52321,R,ugm-3,34.54071,R,ugm-3,75.20906,R,ugm-3
12-01-2016,12:00,29.94736,R,ugm-3,36.77642,R,ugm-3,82.69507,R,ugm-3
12-01-2016,13:00,38.16457,R,ugm-3,41.61935,R,ugm-3,100.13754,R,ugm-3
12-01-2016,14:00,22.04946,R,ugm-3,38.08122,R,ugm-3,71.88992,R,ugm-3
12-01-2016,15:00,23.96687,R,ugm-3,37.33057,R,ugm-3,74.07925,R,ugm-3
12-01-2016,16:00,35.47103,R,ugm-3,44.62006,R,ugm-3,99.00821,R,ugm-3
12-01-2016,17:00,47.29450,R,ugm-3,52.69033,R,ugm-3,125.20755,R,ugm-3
12-01-2016,18:00,18.44289,R,ugm-3,36.05541,R,ugm-3,64.33411,R,ugm-3
12-01-2016,19:00,11.18454,R,ugm-3,29.95310,R,ugm-3,47.10248,R,ugm-3
12-01-2016,20:00,16.75405,R,ugm-3,28.97007,R,ugm-3,54.65925,R,ugm-3
12-01-2016,21:00,11.59552,R,ugm-3,20.28398,R,ugm-3,38.06353,R,ugm-3
12-01-2016,22:00,15.93239,R,ugm-3,24.50964,R,ugm-3,48.93896,R,ugm-3
12-01-2016,23:00,19.94963,R,ugm-3,29.93110,R,ugm-3,60.52011,R,ugm-3
12-01-2016,24:00,16.66299,R,ugm-3,26.92035,R,ugm-3,52.46992,R,ugm-3
13-01-2016,01:00,7.34992,R,ugm-3,19.08229,R,ugm-3,30.35201,R,ugm-3
13-01-2016,02:00,4.79878,R,ugm-3,19.23465,R,ugm-3,26.59268,R,ugm-3
13-01-2016,03:00,8.01796,R,ugm-3,20.54742,R,ugm-3,32.84145,R,ugm-3
13-01-2016,04:00,3.55356,R,ugm-3,14.28446,R,ugm-3,19.73318,R,ugm-3
13-01-2016,05:00,0.50110,R,ugm-3,10.29642,R,ugm-3,11.06477,R,ugm-3
13-01-2016,06:00,13.57624,R,ugm-3,29.99661,R,ugm-3,50.81321,R,ugm-3
13-01-2016,07:00,35.07938,R,ugm-3,43.96168,R,ugm-3,97.74931,R,ugm-3
13-01-2016,08:00,73.98578,R,ugm-3,53.30185,R,ugm-3,166.74514,R,ugm-3
13-01-2016,09:00,71.34338,R,ugm-3,62.99153,R,ugm-3,172.38319,R,ugm-3
13-01-2016,10:00,74.57825,R,ugm-3,66.84140,R,ugm-3,181.19312,R,ugm-3
13-01-2016,11:00,119.95284,R,ugm-3,74.15671,R,ugm-3,258.08183,R,ugm-3
13-01-2016,12:00,79.81691,R,ugm-3,70.22557,R,ugm-3,192.60979,R,ugm-3
13-01-2016,13:00,73.30226,R,ugm-3,66.26095,R,ugm-3,178.65619,R,ugm-3
13-01-2016,14:00,122.59556,R,ugm-3,76.94083,R,ugm-3,264.91807,R,ugm-3
13-01-2016,15:00,176.17146,R,ugm-3,91.83729,R,ugm-3,361.96310,R,ugm-3
13-01-2016,16:00,141.91187,R,ugm-3,87.42324,R,ugm-3,305.01841,R,ugm-3
13-01-2016,17:00,169.01882,R,ugm-3,93.99507,R,ugm-3,353.15364,R,ugm-3
13-01-2016,18:00,136.44527,R,ugm-3,90.87244,R,ugm-3,300.08559,R,ugm-3
13-01-2016,19:00,133.21039,R,ugm-3,91.46244,R,ugm-3,295.71553,R,ugm-3
13-01-2016,20:00,41.00187,R,ugm-3,66.10174,R,ugm-3,128.97039,R,ugm-3
13-01-2016,21:00,27.83568,R,ugm-3,51.68579,R,ugm-3,94.36658,R,ugm-3
13-01-2016,22:00,26.05890,R,ugm-3,47.22202,R,ugm-3,87.17844,R,ugm-3
13-01-2016,23:00,35.26148,R,ugm-3,43.61265,R,ugm-3,97.67950,R,ugm-3
13-01-2016,24:00,10.56931,R,ugm-3,22.76688,R,ugm-3,38.97293,R,ugm-3
14-01-2016,01:00,4.72810,R,ugm-3,18.65006,R,ugm-3,25.89971,R,ugm-3
14-01-2016,02:00,5.27358,R,ugm-3,23.91326,R,ugm-3,31.99931,R,ugm-3
14-01-2016,03:00,3.13696,R,ugm-3,16.86729,R,ugm-3,21.67723,R,ugm-3
14-01-2016,04:00,4.59194,R,ugm-3,19.21106,R,ugm-3,26.25193,R,ugm-3
14-01-2016,05:00,3.04591,R,ugm-3,16.86586,R,ugm-3,21.53618,R,ugm-3
14-01-2016,06:00,8.63849,R,ugm-3,23.35163,R,ugm-3,36.59712,R,ugm-3
14-01-2016,07:00,47.78282,R,ugm-3,50.32122,R,ugm-3,123.58718,R,ugm-3
14-01-2016,08:00,38.69000,R,ugm-3,47.51319,R,ugm-3,106.83703,R,ugm-3
14-01-2016,09:00,28.18773,R,ugm-3,47.64038,R,ugm-3,90.86096,R,ugm-3
14-01-2016,10:00,28.09699,R,ugm-3,48.20122,R,ugm-3,91.28267,R,ugm-3
14-01-2016,11:00,27.27845,R,ugm-3,42.34801,R,ugm-3,84.17438,R,ugm-3
14-01-2016,12:00,21.73202,R,ugm-3,30.65355,R,ugm-3,63.97552,R,ugm-3
14-01-2016,13:00,14.18492,R,ugm-3,28.64160,R,ugm-3,50.39151,R,ugm-3
14-01-2016,14:00,18.27638,R,ugm-3,29.61745,R,ugm-3,57.64084,R,ugm-3
14-01-2016,15:00,17.18530,R,ugm-3,25.09678,R,ugm-3,51.44721,R,ugm-3
14-01-2016,16:00,17.36741,R,ugm-3,27.21105,R,ugm-3,53.84070,R,ugm-3
14-01-2016,17:00,22.09592,R,ugm-3,33.82543,R,ugm-3,67.70537,R,ugm-3
14-01-2016,18:00,31.00663,R,ugm-3,33.53521,R,ugm-3,81.07805,R,ugm-3
14-01-2016,19:00,22.05008,R,ugm-3,34.31790,R,ugm-3,68.12755,R,ugm-3
14-01-2016,20:00,23.14116,R,ugm-3,34.40492,R,ugm-3,69.88753,R,ugm-3
14-01-2016,21:00,21.77723,R,ugm-3,37.12975,R,ugm-3,70.52105,R,ugm-3
14-01-2016,22:00,18.41295,R,ugm-3,35.32053,R,ugm-3,63.55333,R,ugm-3
14-01-2016,23:00,11.91140,R,ugm-3,32.26866,R,ugm-3,50.53255,R,ugm-3
14-01-2016,24:00,16.41229,R,ugm-3,28.46469,R,ugm-3,53.62985,R,ugm-3
15-01-2016,01:00,5.62574,R,ugm-3,28.17814,R,ugm-3,36.80415,R,ugm-3
15-01-2016,02:00,2.90371,R,ugm-3,23.82911,R,ugm-3,28.28141,R,ugm-3
15-01-2016,03:00,7.12271,R,ugm-3,23.56487,R,ugm-3,34.48620,R,ugm-3
15-01-2016,04:00,6.30666,R,ugm-3,18.98682,R,ugm-3,28.65690,R,ugm-3
15-01-2016,05:00,2.58597,R,ugm-3,12.96149,R,ugm-3,16.92658,R,ugm-3
15-01-2016,06:00,8.75667,R,ugm-3,28.22372,R,ugm-3,41.65043,R,ugm-3
15-01-2016,07:00,25.13559,R,ugm-3,41.38841,R,ugm-3,79.92911,R,ugm-3
15-01-2016,08:00,50.17981,R,ugm-3,62.40774,R,ugm-3,139.34905,R,ugm-3
15-01-2016,09:00,180.75622,R,ugm-3,92.78063,R,ugm-3,369.93631,R,ugm-3
15-01-2016,10:00,43.96390,R,ugm-3,52.34273,R,ugm-3,119.75310,R,ugm-3
15-01-2016,11:00,37.15863,R,ugm-3,47.95737,R,ugm-3,104.93314,R,ugm-3
15-01-2016,12:00,40.15308,R,ugm-3,45.19238,R,ugm-3,106.75958,R,ugm-3